TimeMDT,TemperatureF,Dew PointF,Humidity,Sea Level PressureIn,VisibilityMPH,Wind Direction,Wind SpeedMPH,Gust SpeedMPH,PrecipitationIn,Events,Conditions,WindDirDegrees,DateUTC
12:15 AM,67.1,55.6,66,30.12,10.0,NE,4.6,-,N/A,,Clear,40,2013-08-26 06:15:00
12:35 AM,68.7,54.7,61,30.13,10.0,Calm,Calm,-,N/A,,Clear,0,2013-08-26 06:35:00
12:55 AM,65.5,55.9,71,30.13,10.0,SSW,6.9,-,N/A,,Clear,210,2013-08-26 06:55:00
1:15 AM,64.4,55.4,73,30.13,10.0,West,6.9,-,N/A,,Clear,280,2013-08-26 07:15:00
1:35 AM,64.6,55.4,72,30.12,10.0,West,6.9,-,N/A,,Clear,270,2013-08-26 07:35:00
1:55 AM,62.2,55.8,79,30.13,10.0,WSW,5.8,-,N/A,,Clear,250,2013-08-26 07:55:00
2:15 AM,62.6,56.3,80,30.12,10.0,West,5.8,-,N/A,,Clear,260,2013-08-26 08:15:00
2:35 AM,62.1,56.3,81,30.12,10.0,West,8.1,-,N/A,,Clear,260,2013-08-26 08:35:00
2:55 AM,62.1,56.8,83,30.12,10.0,West,8.1,-,N/A,,Clear,270,2013-08-26 08:55:00
3:15 AM,61.9,57.0,84,30.12,10.0,West,9.2,-,N/A,,Clear,280,2013-08-26 09:15:00
3:35 AM,61.2,57.2,87,30.13,10.0,West,9.2,-,N/A,,Clear,270,2013-08-26 09:35:00
3:55 AM,60.8,56.8,87,30.12,10.0,West,8.1,-,N/A,,Clear,280,2013-08-26 09:55:00
4:15 AM,60.8,57.0,87,30.13,10.0,West,5.8,-,N/A,,Clear,270,2013-08-26 10:15:00
4:35 AM,59.9,56.5,88,30.13,10.0,WSW,3.5,-,N/A,,Clear,240,2013-08-26 10:35:00
4:55 AM,59.0,56.3,91,30.14,10.0,SSW,6.9,-,N/A,,Clear,210,2013-08-26 10:55:00
5:15 AM,59.0,55.8,89,30.14,10.0,WSW,6.9,-,N/A,,Clear,250,2013-08-26 11:15:00
5:35 AM,58.1,55.4,91,30.14,10.0,West,6.9,-,N/A,,Clear,260,2013-08-26 11:35:00
5:55 AM,58.1,55.0,90,30.14,10.0,West,5.8,-,N/A,,Clear,270,2013-08-26 11:55:00
6:15 AM,56.7,54.1,91,30.15,10.0,WNW,4.6,-,N/A,,Clear,290,2013-08-26 12:15:00
6:35 AM,59.0,55.4,88,30.15,10.0,WNW,5.8,-,N/A,,Clear,290,2013-08-26 12:35:00
6:55 AM,59.4,55.6,87,30.15,10.0,South,3.5,-,N/A,,Clear,170,2013-08-26 12:55:00
7:15 AM,61.3,56.3,83,30.15,10.0,Calm,Calm,-,N/A,,Clear,0,2013-08-26 13:15:00
7:35 AM,64.4,57.0,77,30.16,10.0,Calm,Calm,-,N/A,,Clear,0,2013-08-26 13:35:00
7:55 AM,66.7,57.4,72,30.16,10.0,WSW,6.9,-,N/A,,Clear,250,2013-08-26 13:55:00
8:15 AM,68.9,57.0,66,30.17,10.0,Calm,Calm,-,N/A,,Clear,0,2013-08-26 14:15:00
8:35 AM,72.3,56.8,58,30.17,10.0,WSW,6.9,-,N/A,,Clear,250,2013-08-26 14:35:00
8:55 AM,73.4,57.4,57,30.17,10.0,WSW,6.9,-,N/A,,Clear,250,2013-08-26 14:55:00
9:15 AM,76.5,55.8,49,30.17,10.0,West,5.8,-,N/A,,Clear,260,2013-08-26 15:15:00
9:35 AM,79.2,54.0,42,30.17,10.0,WNW,4.6,-,N/A,,Clear,300,2013-08-26 15:35:00
9:55 AM,-9999,-9999,N/A,30.17,10.0,WSW,3.5,-,N/A,,Clear,240,2013-08-26 15:55:00
10:15 AM,-9999,-9999,N/A,30.16,10.0,SSE,4.6,-,N/A,,Clear,160,2013-08-26 16:15:00
10:35 AM,-9999,-9999,N/A,30.16,10.0,South,3.5,-,N/A,,Clear,170,2013-08-26 16:35:00
10:55 AM,-9999,-9999,N/A,30.16,10.0,SSE,3.5,-,N/A,,Clear,150,2013-08-26 16:55:00
11:15 AM,-9999,-9999,N/A,30.16,10.0,Calm,Calm,-,N/A,,Clear,0,2013-08-26 17:15:00
11:35 AM,-9999,-9999,N/A,30.15,10.0,Calm,Calm,-,N/A,,Clear,0,2013-08-26 17:35:00
11:55 AM,-9999,-9999,N/A,30.15,10.0,ENE,8.1,-,N/A,,Clear,70,2013-08-26 17:55:00
12:15 PM,-9999,-9999,N/A,30.14,10.0,NE,3.5,-,N/A,,Clear,50,2013-08-26 18:15:00
12:35 PM,-9999,-9999,N/A,30.13,10.0,ESE,3.5,-,N/A,,Clear,110,2013-08-26 18:35:00
12:55 PM,-9999,-9999,N/A,30.13,10.0,SSE,10.4,16.1,N/A,,Clear,160,2013-08-26 18:55:00
1:15 PM,-9999,-9999,N/A,30.12,10.0,SE,8.1,18.4,N/A,,Clear,130,2013-08-26 19:15:00
1:35 PM,-9999,-9999,N/A,30.12,10.0,ESE,5.8,-,N/A,,Clear,120,2013-08-26 19:35:00
1:55 PM,-9999,-9999,N/A,30.11,10.0,ESE,6.9,-,N/A,,Clear,110,2013-08-26 19:55:00
2:15 PM,-9999,-9999,N/A,30.11,10.0,South,5.8,-,N/A,,Clear,170,2013-08-26 20:15:00
2:35 PM,-9999,-9999,N/A,30.10,10.0,ESE,4.6,-,N/A,,Clear,110,2013-08-26 20:35:00
2:55 PM,-9999,-9999,N/A,30.09,10.0,SSW,4.6,-,N/A,,Clear,210,2013-08-26 20:55:00
3:15 PM,-9999,-9999,N/A,30.09,10.0,SSW,4.6,-,N/A,,Clear,200,2013-08-26 21:15:00
3:35 PM,-9999,-9999,N/A,30.08,10.0,SSW,8.1,-,N/A,,Clear,200,2013-08-26 21:35:00
3:55 PM,-9999,-9999,N/A,30.07,10.0,WSW,8.1,-,N/A,,Clear,240,2013-08-26 21:55:00
4:15 PM,-9999,-9999,N/A,30.07,10.0,South,3.5,-,N/A,,Clear,180,2013-08-26 22:15:00
4:35 PM,-9999,-9999,N/A,30.07,10.0,South,4.6,-,N/A,,Clear,170,2013-08-26 22:35:00
4:55 PM,-9999,-9999,N/A,30.06,10.0,SE,3.5,-,N/A,,Clear,140,2013-08-26 22:55:00
5:15 PM,-9999,-9999,N/A,30.05,10.0,South,5.8,-,N/A,,Clear,170,2013-08-26 23:15:00
5:35 PM,-9999,-9999,N/A,30.05,10.0,SSE,4.6,-,N/A,,Clear,160,2013-08-26 23:35:00
5:55 PM,-9999,-9999,N/A,30.05,10.0,SW,3.5,-,N/A,,Clear,220,2013-08-26 23:55:00
6:15 PM,-9999,-9999,N/A,30.05,10.0,WSW,4.6,-,N/A,,Clear,240,2013-08-27 00:15:00
6:35 PM,-9999,-9999,N/A,30.04,10.0,SW,4.6,-,N/A,,Clear,220,2013-08-27 00:35:00
6:55 PM,-9999,-9999,N/A,30.05,10.0,SW,3.5,-,N/A,,Clear,220,2013-08-27 00:55:00
7:15 PM,-9999,-9999,N/A,30.05,10.0,Calm,Calm,-,N/A,,Clear,0,2013-08-27 01:15:00
7:35 PM,-9999,-9999,N/A,30.05,10.0,West,3.5,-,N/A,,Clear,270,2013-08-27 01:35:00
7:55 PM,-9999,-9999,N/A,30.06,10.0,NW,4.6,-,N/A,,Clear,320,2013-08-27 01:55:00
8:15 PM,80.1,47.7,32,30.07,10.0,Calm,Calm,-,N/A,,Clear,0,2013-08-27 02:15:00
8:35 PM,80.6,50.0,34,30.07,10.0,SSW,4.6,-,N/A,,Clear,210,2013-08-27 02:35:00
8:55 PM,78.8,49.8,36,30.07,10.0,SW,3.5,-,N/A,,Clear,220,2013-08-27 02:55:00
9:15 PM,-9999,-9999,N/A,30.07,10.0,SSW,6.9,-,N/A,,Clear,210,2013-08-27 03:15:00
9:35 PM,78.4,51.6,39,30.08,10.0,NW,6.9,-,N/A,,Clear,320,2013-08-27 03:35:00
9:55 PM,75.7,53.6,46,30.09,10.0,Calm,Calm,-,N/A,,Clear,0,2013-08-27 03:55:00
10:15 PM,77.4,51.4,40,30.09,10.0,North,6.9,-,N/A,,Clear,10,2013-08-27 04:15:00
10:35 PM,77.5,50.5,39,30.09,10.0,North,8.1,16.1,N/A,,Clear,360,2013-08-27 04:35:00
10:55 PM,75.2,51.1,43,30.10,10.0,West,6.9,-,N/A,,Clear,270,2013-08-27 04:55:00
11:15 PM,73.4,51.8,47,30.10,10.0,West,8.1,-,N/A,,Clear,270,2013-08-27 05:15:00
11:35 PM,73.4,51.4,46,30.10,10.0,WNW,9.2,-,N/A,,Clear,300,2013-08-27 05:35:00
11:55 PM,74.8,51.3,44,30.10,10.0,NW,6.9,-,N/A,,Clear,310,2013-08-27 05:55:00